CAPE
1909 2288 2004 2733 2758 2280 2382 1322 1061 2837 1905 2257 2027 2069 1687 1819 1686 1486 1709 877 2626 2673 2479 2314 2399 2100 1539 1446 1783 1632 1198 645 696 1397 1254 1343 1420 1355 1228 1037 818 1036 1104
1633 1927 3186 2777 1337 1752 1855 2594 2801 2787 3004 2525 2331 2172 1810 2192 1676 1411 2035 2193 2615 2676 2964 2792 2496 2504 2202 1894 1373 1967 1661 1455 1289 949 1249 1309 1492 1394 1437 1191 1117 1052 1433
3493 3166 2937 3149 2005 1920 2926 1897 2193 1916 2363 2272 1434 2379 1761 1952 1421 668 447 403 2090 2921 2903 2858 2618 2833 2463 2068 1916 1766 2392 2139 2020 1812 1339 1608 1748 1879 1793 1543 1220 1468 1582
3003 3607 3362 2881 3012 3249 1530 1724 2320 1706 1305 618 212 649 512 265 273 163 247 573 618 863 2334 2528 2980 2614 2448 1619 1827 1825 2162 2205 2384 2197 1640 1874 2062 2019 1892 1776 1739 1752 1695
3395 2917 2713 2316 2430 2169 2300 1732 1967 1301 702 197 22 101 442 147 344 86 420 539 650 605 1267 2457 2633 2650 2056 1603 1932 2123 2070 2234 1843 1918 2352 2194 1845 1944 2014 1969 1920 1924 1878
2521 2395 2788 2592 2373 2519 2218 1732 1053 1218 439 589 19 13 71 177 625 814 186 433 698 594 1084 1476 1557 1560 1534 1444 1941 2419 1916 2017 2243 2052 1964 1997 2000 2015 2171 2109 2009 1923 1991
2761 2678 3406 2352 1950 2434 2115 1584 1427 578 491 1103 417 449 858 346 347 433 76 312 420 484 898 1656 1443 1476 1652 1503 1563 1784 1581 1434 1255 1623 1830 1993 1938 1905 2025 2052 2005 2059 2012
2838 3312 3379 2272 1986 1489 1864 1876 1090 646 133 1018 349 192 164 559 28 100 387 21 11 144 808 783 861 984 1606 1714 821 629 638 792 984 1275 1296 1227 1382 1543 1680 1910 1803 1903 1949
3091 3065 2566 2768 2263 2181 2112 1714 1027 481 350 937 234 419 496 220 378 658 734 22 18 22 155 127 2 23 442 1011 282 0 0 0 32 83 183 332 541 771 865 1028 1225 1529 1622
2649 2970 3293 2909 2203 2454 1871 1454 1106 564 490 197 791 529 303 131 527 157 352 120 4 0 0 3 0 0 0 0 0 0 0 0 0 0 0 0 0 13 157 376 835 1320 1520
2138 2905 2583 2789 3090 2015 1567 927 1086 675 663 479 705 570 693 447 506 54 126 49 114 26 6 0 0 0 0 0 0 0 0 0 0 0 0 0 0 0 0 0 0 357 1134
2194 2855 2316 2961 2791 2010 1602 673 779 511 450 672 484 635 321 370 133 470 171 50 38 110 56 20 0 2 0 0 0 0 0 0 0 0 0 0 0 0 0 0 0 0 0
1481 2208 2975 2795 2340 1988 1789 1435 848 1094 735 603 1189 423 270 362 352 194 74 31 69 69 89 59 45 28 13 0 0 0 0 0 0 0 0 0 0 0 0 0 0 0 0
1447 2010 2354 2619 2165 1718 1706 1221 797 500 727 668 424 764 324 238 257 552 322 97 1 14 64 191 185 80 69 38 0 0 0 0 0 0 0 0 0 0 0 0 0 0 0
2848 2021 2071 2398 1999 1693 1332 1370 791 661 856 1176 818 938 822 447 421 384 397 70 278 33 19 63 70 123 213 22 122 3 23 42 18 0 0 0 0 0 0 0 0 0 0
2635 2293 2087 2052 1829 1710 1549 1620 854 1239 1125 1094 795 875 903 418 557 529 95 295 134 100 36 49 24 114 602 279 117 67 63 35 35 3 0 0 0 0 0 0 0 0 0
2815 2164 1950 1759 1807 1705 1546 1336 1136 1113 1039 956 568 706 459 760 444 407 663 498 447 235 118 65 150 175 451 526 398 482 360 73 55 40 18 6 0 0 0 0 0 0 0
2902 2061 1928 1854 1619 1485 1407 1323 837 489 974 1050 957 1025 820 626 1011 1119 733 790 592 528 220 196 216 334 223 590 869 579 482 44 58 45 28 9 5 1 0 0 0 0 0
3179 2167 1972 1761 1657 1332 1298 1119 1036 854 909 398 932 930 830 892 1056 629 757 776 586 406 334 199 250 265 124 224 190 342 256 302 120 64 27 4 4 0 0 0 0 0 0
3402 2329 1970 1741 1483 1218 1265 1099 1182 1121 827 736 852 852 922 1028 1069 957 800 406 409 384 223 125 103 98 208 253 168 99 49 69 39 48 32 20 1 0 0 0 0 0 0
3472 2578 1936 1714 1356 771 1071 997 1128 991 884 792 777 873 908 1073 712 363 647 805 208 156 66 55 3 2 10 12 0 2 35 35 23 69 1 0 0 0 0 0 0 0 0
3244 2560 1799 1417 1146 649 456 267 906 866 973 891 866 1211 1180 667 86 12 21 24 71 52 49 44 36 6 1 81 91 51 45 0 0 0 1 0 0 0 0 0 0 0 4
3079 2238 1695 1260 863 803 153 53 475 752 801 856 1086 1240 1303 851 609 301 30 36 40 20 15 46 10 6 55 124 144 99 64 15 3 0 0 0 0 0 0 0 6 11 5
2682 1916 1519 1097 858 1143 272 0 53 291 527 1123 853 1301 1285 1351 776 509 210 180 202 244 102 22 13 19 69 117 158 39 1 0 0 0 8 12 0 1 14 37 21 15 3
2239 1766 1324 1169 1199 1335 280 0 0 102 119 462 789 1191 1268 1442 1041 39 196 219 217 94 64 43 39 46 14 0 0 4 0 0 0 0 4 20 24 37 6 1 0 0 0
2336 1481 1116 1170 1112 1217 209 3 0 151 129 552 1075 998 564 1027 497 9 55 192 121 129 320 289 217 82 19 4 0 9 21 26 37 38 26 61 0 0 0 0 0 0 0
CIN
-24 -32 -57 -19 -29 -41 -46 -147 -119 -20 -42 -21 -20 -18 -22 -23 -26 -65 -82 -133 -57 -30 -17 -21 -0 -0 -1 -0 -0 -0 -1 -10 -1 -0 -0 -0 -0 -0 -0 -0 -0 -0 -1
-86 -55 -1 -17 -90 -72 -48 -20 -16 -18 -16 -22 -14 -18 -39 -26 -20 -29 -61 -76 -37 -39 -25 -19 -10 -0 -0 -0 -1 -0 -0 -0 -0 -2 -0 -0 -0 -0 -0 -0 -0 -0 -0
-16 -3 -6 -15 -57 -48 -11 -44 -33 -49 -42 -18 -62 -13 -19 -21 -23 -17 -38 -80 -50 -44 -31 -25 -20 -5 -3 -3 -2 -3 -0 -0 -0 -0 -0 -0 -0 -0 -0 -0 -0 -0 -0
-3 -5 -3 -8 -11 -36 -90 -53 -23 -48 -69 -37 -113 -34 -45 -69 -43 -63 -67 -23 -41 -24 -43 -30 -16 -15 -8 -12 -4 -4 -2 -0 -0 -0 -2 -0 -0 -0 -0 -0 -0 -0 -0
-7 -13 -18 -33 -26 -41 -28 -23 -22 -48 -46 -121 -105 -152 -54 -115 -45 -63 -33 -23 -9 -55 -48 -42 -30 -25 -12 -11 -6 -3 -2 -2 -4 -2 -0 -0 -1 -0 -0 -0 -0 -0 -0
-23 -38 -22 -24 -27 -11 -44 -27 -34 -13 -36 -53 -109 -27 -78 -90 -55 -29 -99 -52 -35 -35 -54 -24 -22 -21 -21 -6 -1 -1 -4 -2 -2 -1 -1 -1 -1 -0 -0 -0 -0 -0 -0
-7 -16 -8 -37 -29 -11 -19 -33 -10 -24 -29 -32 -48 -50 -38 -68 -78 -75 -139 -70 -39 -37 -43 -33 -48 -50 -29 -16 -20 -10 -6 -10 -14 -6 -6 -5 -3 -3 -1 -1 -2 -1 -0
-31 -12 -13 -30 -46 -69 -35 -10 -18 -22 -93 -29 -27 -76 -111 -62 -82 -127 -92 -216 -290 -117 -30 -30 -28 -13 -11 -11 -28 -41 -53 -39 -20 -14 -28 -26 -15 -9 -6 -4 -5 -2 -1
-9 -15 -10 -16 -17 -22 -14 -5 -12 -9 -33 -21 -26 -27 -31 -81 -62 -54 -33 -170 -245 -207 -103 -119 -93 -158 -46 -19 -97 -0 -0 -0 -77 -160 -128 -99 -61 -39 -38 -30 -23 -10 -10
-7 -25 -10 -14 -23 -18 -24 -19 -22 -25 -28 -55 -20 -21 -21 -42 -30 -84 -104 -127 -81 -0 -0 -88 -0 -0 -0 -0 -0 -0 -0 -0 -0 -0 -0 -0 -0 -32 -132 -83 -19 -1 -2
-5 -14 -16 -4 -8 -10 -37 -43 -13 -17 -21 -31 -27 -20 -11 -35 -37 -84 -42 -57 -183 -95 -101 -0 -0 -0 -0 -0 -0 -0 -0 -0 -0 -0 -0 -0 -0 -0 -0 -0 -0 -52 -0
-19 -4 -9 -10 -9 -8 -31 -98 -36 -35 -41 -21 -41 -30 -33 -14 -52 -19 -36 -77 -37 -181 -241 -95 -0 -26 -0 -0 -0 -0 -0 -0 -0 -0 -0 -0 -0 -0 -0 -0 -0 -0 -0
-65 -25 -10 -11 -13 -17 -31 -58 -121 -18 -34 -9 -4 -31 -59 -28 -20 -28 -55 -74 -72 -139 -155 -143 -104 -131 -60 -0 -0 -0 -0 -0 -0 -0 -0 -0 -0 -0 -0 -0 -0 -0 -0
-43 -74 -24 -13 -16 -27 -21 -67 -160 -136 -96 -45 -18 -12 -44 -52 -40 -16 -17 -40 -5 -50 -139 -69 -168 -79 -253 -62 -0 -0 -0 -0 -0 -0 -0 -0 -0 -0 -0 -0 -0 -0 -0
-30 -84 -59 -30 -25 -42 -66 -20 -57 -84 -68 -17 -10 -7 -11 -27 -26 -41 -48 -106 -15 -18 -42 -61 -35 -84 -154 -80 -148 -27 -43 -244 -184 -0 -0 -0 -0 -0 -0 -0 -0 -0 -0
-45 -69 -82 -67 -53 -39 -14 -20 -62 -10 -27 -12 -15 -10 -15 -19 -37 -34 -86 -58 -60 -65 -51 -85 -98 -82 -41 -44 -64 -66 -75 -45 -193 -92 -0 -0 -0 -0 -0 -0 -0 -0 -0
-50 -75 -116 -103 -58 -32 -34 -41 -21 -40 -42 -34 -50 -13 -26 -7 -23 -32 -23 -24 -27 -42 -43 -77 -69 -43 -35 -36 -46 -45 -64 -74 -43 -118 -166 -176 -0 -0 -0 -0 -0 -0 -0
-45 -85 -94 -97 -93 -62 -51 -46 -64 -63 -26 -49 -32 -10 -6 -3 -15 -14 -22 -24 -19 -33 -36 -56 -42 -64 -97 -44 -41 -43 -38 -13 -35 -28 -90 -121 -142 -66 -0 -0 -0 -0 -0
-31 -111 -129 -129 -106 -113 -79 -72 -54 -59 -45 -109 -27 -23 -17 -10 -10 -20 -15 -13 -24 -40 -48 -34 -63 -74 -59 -56 -77 -72 -104 -66 -112 -51 -18 -41 -115 -0 -0 -0 -0 -0 -0
-28 -132 -156 -149 -128 -132 -89 -72 -36 -33 -55 -47 -35 -27 -12 -11 -15 -19 -20 -47 -47 -37 -84 -52 -39 -30 -44 -61 -45 -45 -39 -45 -39 -25 -29 -7 -42 -0 -0 -0 -0 -0 -0
-37 -96 -131 -139 -181 -207 -115 -117 -47 -44 -49 -43 -34 -20 -11 -14 -19 -82 -36 -29 -154 -95 -91 -84 -72 -17 -36 -30 -0 -6 -15 -17 -26 -35 -2 -0 -0 -0 -0 -0 -0 -0 -0
-54 -89 -177 -174 -165 -247 -243 -269 -56 -23 -16 -26 -16 -10 -11 -42 -152 -156 -224 -181 -168 -126 -113 -79 -58 -36 -48 -33 -14 -24 -20 -0 -0 -0 -3 -0 -0 -0 -0 -0 -0 -0 -55
-53 -115 -147 -181 -220 -198 -381 -449 -123 -38 -20 -19 -7 -7 -5 -9 -41 -90 -207 -182 -169 -144 -95 -42 -102 -128 -23 -25 -23 -17 -15 -5 -6 -0 -0 -0 -0 -0 -0 -0 -4 -12 -10
-85 -153 -173 -213 -220 -101 -343 -0 -339 -174 -84 -20 -13 -10 -14 -10 -60 -72 -107 -101 -92 -66 -99 -75 -76 -103 -75 -31 -26 -42 -8 -0 -0 -0 -14 -7 -0 -3 -10 -10 -5 -43 -52
-126 -160 -179 -163 -144 -75 -284 -0 -0 -260 -189 -56 -22 -14 -12 -5 -18 -158 -80 -67 -50 -90 -60 -61 -77 -73 -36 -0 -0 -105 -0 -0 -0 -0 -20 -13 -8 -10 -3 -1 -0 -0 -0
-80 -162 -188 -139 -127 -102 -384 -211 -0 -253 -178 -38 -13 -13 -35 -15 -60 -179 -113 -40 -29 -35 -7 -8 -21 -46 -21 -8 -2 -158 -90 -45 -34 -9 -13 -13 -0 -0 -0 -0 -0 -0 -0
Wind_Speed
2 3 1 4 3 3 4 3 5 4 4 4 3 4 3 5 5 5 4 8 12 12 12 14 14 13 13 12 13 12 11 10 10 8 9 9 9 8 7 7 7 6 6
4 4 2 2 1 2 1 1 3 3 4 4 3 1 3 4 4 1 4 4 10 12 14 14 14 14 14 14 14 13 14 13 12 12 10 10 9 10 10 8 8 8 7
5 1 3 4 3 1 3 4 4 4 5 5 6 4 4 5 5 4 3 2 8 15 14 14 14 12 12 13 14 14 12 14 13 12 12 12 11 10 11 10 9 9 8
1 3 3 5 2 4 3 4 1 4 4 4 4 3 2 3 4 2 3 2 3 4 12 13 12 13 14 12 12 11 13 13 14 14 13 12 12 11 12 11 11 10 10
7 4 4 3 1 2 0 1 1 1 3 5 5 3 2 1 4 4 2 3 2 2 5 12 14 15 14 13 12 12 10 12 12 11 12 14 13 13 13 12 12 12 11
2 5 2 4 6 1 4 2 1 2 3 4 5 6 3 2 4 2 3 1 5 5 8 2 1 5 9 6 6 9 11 10 11 12 12 12 13 14 13 12 12 13 12
6 3 3 4 1 2 4 4 3 4 3 3 3 5 4 4 4 3 3 5 5 5 6 5 5 4 5 8 8 8 2 6 7 11 12 12 12 13 13 13 13 13 13
4 5 6 4 6 4 5 4 4 2 3 3 2 4 2 1 2 2 5 5 5 4 5 7 6 4 3 4 6 10 9 7 4 5 6 2 8 11 14 14 13 14 14
8 7 4 4 3 3 5 4 2 1 3 2 2 2 4 1 1 2 5 5 1 4 4 6 6 4 4 6 7 9 9 7 6 5 4 2 3 3 3 5 7 13 14
6 7 6 6 5 4 4 4 5 2 1 3 2 2 2 0 3 2 1 4 4 5 2 1 5 4 1 5 9 9 7 5 5 4 4 4 3 4 6 8 8 8 9
4 9 6 6 5 3 5 6 5 2 2 2 4 2 1 3 2 1 1 2 3 4 5 4 5 5 5 6 6 7 7 4 2 2 1 3 5 6 6 6 8 9 9
5 5 8 6 7 6 7 5 5 3 1 2 3 4 3 1 0 1 2 3 1 4 5 5 5 4 5 5 7 12 10 8 6 3 3 3 4 5 6 6 6 6 8
8 8 7 8 6 5 6 6 7 4 5 2 2 3 4 3 1 1 2 4 2 3 2 3 5 5 4 4 7 10 11 11 9 8 7 6 6 7 6 7 8 8 9
8 13 9 8 8 7 6 7 8 7 7 5 5 4 3 4 3 2 1 1 4 4 4 3 2 5 5 3 8 12 5 12 12 10 10 11 9 9 11 10 9 10 10
5 13 11 11 10 10 7 6 4 6 4 5 5 5 3 4 3 3 2 0 1 2 3 4 4 3 3 4 6 6 4 5 12 13 14 14 14 12 12 13 12 11 11
8 12 12 12 11 9 7 7 5 4 6 5 4 5 6 1 3 3 3 1 2 3 2 0 3 3 5 4 3 5 5 7 11 16 18 18 16 15 15 15 15 14 13
8 13 13 12 12 10 10 9 6 7 7 6 4 3 3 2 3 3 2 2 2 3 3 4 2 3 2 3 5 4 5 6 7 15 18 18 19 19 18 17 16 16 16
10 12 12 13 13 11 11 11 10 7 9 9 8 6 5 5 7 5 3 5 3 3 3 6 4 3 5 6 6 5 5 5 5 8 12 14 16 16 16 18 18 19 17
12 13 13 14 14 13 12 12 11 9 9 7 7 6 6 6 5 4 3 3 3 4 3 4 4 4 4 4 5 4 4 4 5 11 15 17 17 15 18 20 20 19 19
15 15 14 13 14 14 13 13 13 11 8 8 8 8 8 7 7 6 5 5 4 3 4 5 6 7 4 3 1 2 4 4 6 9 11 11 7 14 21 20 20 19 20
14 13 12 13 14 12 10 14 14 12 9 9 8 8 7 8 6 7 3 3 2 1 1 2 8 7 7 5 6 5 5 5 3 3 4 6 5 5 6 9 15 19 20
13 13 14 13 13 9 13 15 12 10 11 9 9 7 6 6 6 9 8 8 6 4 4 2 3 7 9 5 4 6 6 7 8 4 3 8 5 8 10 10 13 16 11
13 12 12 11 12 11 11 15 15 9 9 10 10 8 7 5 8 7 8 8 8 10 8 3 6 8 10 9 4 7 6 6 8 8 9 10 6 9 10 10 14 16 13
13 11 11 11 11 10 12 11 15 11 6 8 9 10 8 7 8 8 6 5 6 6 7 6 9 10 11 10 5 5 7 7 8 8 8 8 8 10 10 8 15 16 9
10 10 10 11 11 8 9 10 11 7 7 9 8 7 7 9 9 8 6 6 5 6 7 14 16 17 10 8 9 4 8 6 9 7 4 6 8 8 6 8 8 10 11
8 7 9 8 9 7 11 13 11 6 9 8 7 8 10 9 8 10 8 6 7 8 6 6 3 4 7 10 16 11 10 9 9 8 7 4 8 9 10 9 7 8 10
Wind_Direction
217 94 2 307 354 340 108 163 264 32 350 5 346 6 339 347 321 83 202 198 165 175 194 190 197 195 201 205 206 203 199 207 216 223 221 212 211 219 216 223 227 239 231
88 338 287 344 129 285 164 146 24 337 341 307 287 219 273 283 286 246 145 178 195 186 193 196 199 202 207 207 209 207 205 210 208 213 225 230 229 227 215 227 235 238 242
114 163 291 319 225 205 356 48 317 334 296 285 249 214 241 225 271 51 46 294 190 205 192 194 205 202 208 212 211 210 205 211 214 214 216 225 235 229 220 227 238 248 251
152 176 229 238 323 98 111 292 334 301 317 334 325 267 269 23 350 254 202 252 10 182 201 194 196 205 206 211 217 220 214 212 212 216 225 227 229 229 234 236 234 242 248
206 208 210 252 214 270 29 81 37 244 4 324 282 290 74 212 259 27 124 153 211 194 184 183 195 207 209 210 211 214 220 218 224 219 218 227 230 231 233 238 235 239 249
242 184 259 220 225 262 81 74 326 349 258 265 344 331 313 8 5 352 173 86 92 53 96 243 214 239 204 232 244 228 219 217 215 227 230 227 230 233 234 233 232 234 239
208 189 226 242 203 174 146 206 56 335 313 73 342 275 175 148 230 281 57 61 23 106 77 74 63 52 95 93 78 76 57 253 243 245 230 223 227 233 238 238 235 235 237
191 195 220 173 189 151 157 100 73 311 324 100 350 314 274 121 265 117 77 79 25 332 100 73 73 65 137 89 86 71 71 74 60 48 59 243 249 249 235 233 233 235 238
188 180 149 117 120 203 133 141 123 195 335 26 136 292 357 356 251 101 118 94 79 44 40 99 80 60 68 106 105 82 67 63 62 54 35 11 324 323 271 258 257 239 234
168 165 174 159 172 61 133 135 94 41 12 318 196 145 104 352 352 36 135 148 166 135 115 132 137 139 78 109 101 98 92 78 63 38 32 30 358 320 297 291 298 284 258
135 172 155 138 133 153 108 113 123 104 324 306 335 46 114 219 152 301 354 241 247 154 165 186 130 168 163 146 142 140 134 114 75 72 50 351 339 335 330 320 304 290 284
171 173 154 158 150 163 146 140 112 155 47 354 358 329 288 343 113 342 347 344 356 229 173 177 156 195 162 166 149 159 164 178 185 215 281 328 314 303 300 300 304 308 299
173 183 175 157 150 160 156 151 144 172 161 249 325 326 305 327 354 94 37 305 335 316 246 179 181 163 172 156 149 153 189 205 204 222 233 242 264 280 287 293 304 311 313
182 164 170 159 155 173 174 177 166 179 166 172 215 234 322 315 336 355 202 21 336 325 324 264 168 164 170 163 158 184 211 202 211 210 235 250 246 250 262 268 267 275 286
141 161 163 161 180 180 186 154 223 204 134 162 182 195 220 288 326 311 26 154 168 345 321 340 348 284 143 172 161 194 201 205 200 210 223 234 239 246 241 247 254 258 267
159 163 167 171 183 184 177 176 202 213 167 181 187 212 191 218 306 305 258 122 146 154 243 136 285 311 27 9 181 216 228 242 209 214 222 229 231 233 236 242 242 244 249
175 169 173 177 186 187 181 185 204 201 186 181 197 201 146 196 265 284 7 345 280 206 208 287 245 264 281 263 258 255 233 238 242 225 232 238 232 226 226 234 239 240 238
174 169 177 181 188 186 188 186 202 216 192 184 187 180 192 209 213 227 259 260 275 302 249 259 271 291 275 258 239 227 241 265 252 264 267 243 236 224 225 228 231 239 243
182 182 184 188 188 188 188 190 200 210 205 194 193 185 203 214 212 227 230 260 298 293 312 265 273 264 266 270 273 257 249 263 272 267 264 263 250 227 227 229 229 232 237
191 193 191 191 193 190 189 192 198 210 199 200 191 204 202 206 203 202 215 246 246 287 307 301 291 280 278 278 97 288 279 248 254 265 274 272 253 237 238 240 238 238 237
196 192 191 197 196 193 192 193 201 202 201 209 200 204 219 219 151 136 192 185 153 115 293 309 299 307 305 315 306 294 282 281 310 268 316 304 300 312 305 247 244 248 252
188 192 198 198 194 197 192 197 195 202 208 198 218 209 212 155 149 145 160 180 170 182 216 222 279 280 284 290 319 323 321 308 298 290 320 303 311 310 301 284 267 274 239
188 192 197 193 192 200 201 194 194 200 200 208 208 209 209 194 161 173 184 190 205 219 218 215 233 247 279 280 293 284 284 296 284 291 293 284 282 279 275 276 278 260 272
190 187 190 190 193 200 177 193 200 207 215 220 212 210 200 199 185 192 192 212 232 237 214 209 229 246 247 253 238 244 262 264 268 264 243 270 279 274 270 263 265 271 250
186 185 183 188 197 211 183 190 186 204 217 238 230 221 198 212 199 201 201 221 242 254 238 236 237 249 241 232 241 264 270 273 275 275 275 277 282 285 302 293 290 301 291
171 177 182 191 190 203 177 190 185 190 224 229 218 225 219 219 197 187 210 222 243 259 245 276 309 261 252 251 248 242 250 254 262 282 273 301 312 311 299 287 291 297 287